Hourly Weather Golebice

Today, 17 May, Monday

Time Temperature Precipitation Wind Pressure Humidity
00:00 +9°C° 0 mm 2 mps 738 mmHg 86%
01:00 +8°C° 0 mm 2 mps 738 mmHg 88%
02:00 +8°C° 0.1 mm 2 mps 738 mmHg 90%
03:00 +8°C° 0.1 mm 3 mps 737 mmHg 92%
04:00 +8°C° 0.1 mm 3 mps 737 mmHg 94%
05:00 +9°C° 0 mm 2 mps 737 mmHg 91%
06:00 +12°C° 0 mm 2 mps 738 mmHg 87%
07:00 +13°C° 0 mm 2 mps 738 mmHg 83%
08:00 +14°C° 0.1 mm 2 mps 738 mmHg 79%
09:00 +15°C° 0.1 mm 2 mps 738 mmHg 74%
10:00 +17°C° 0.1 mm 2 mps 738 mmHg 69%
11:00 +17°C° 0.3 mm 2 mps 738 mmHg 68%
12:00 +17°C° 0.3 mm 2 mps 738 mmHg 68%
13:00 +17°C° 0.3 mm 2 mps 738 mmHg 67%
14:00 +16°C° 0.8 mm 2 mps 738 mmHg 74%
15:00 +14°C° 0.8 mm 2 mps 738 mmHg 82%
16:00 +12°C° 0.8 mm 3 mps 738 mmHg 89%
17:00 +13°C° 1 mm 2 mps 738 mmHg 90%
18:00 +13°C° 1 mm 2 mps 739 mmHg 91%
19:00 +12°C° 1 mm 2 mps 739 mmHg 92%
20:00 +12°C° 0.1 mm 2 mps 739 mmHg 92%
21:00 +11°C° 0.1 mm 3 mps 739 mmHg 91%
22:00 +11°C° 0.1 mm 3 mps 739 mmHg 91%
23:00 +10°C° 0.1 mm 4 mps 739 mmHg 92%

Tomorrow, 18 May, Tuesday

Time Temperature Precipitation Wind Pressure Humidity
00:00 +9°C° 0.1 mm 5 mps 740 mmHg 92%
01:00 +9°C° 0.1 mm 5 mps 740 mmHg 93%
02:00 +8°C° 0 mm 6 mps 740 mmHg 93%
03:00 +8°C° 0 mm 6 mps 740 mmHg 93%
04:00 +8°C° 0 mm 6 mps 740 mmHg 92%
05:00 +8°C° 0 mm 6 mps 741 mmHg 91%
06:00 +9°C° 0 mm 6 mps 741 mmHg 90%
07:00 +9°C° 0 mm 6 mps 741 mmHg 88%
08:00 +10°C° 0.1 mm 6 mps 742 mmHg 85%
09:00 +10°C° 0.1 mm 6 mps 742 mmHg 82%
10:00 +11°C° 0.1 mm 6 mps 742 mmHg 79%
11:00 +13°C° 0.2 mm 6 mps 742 mmHg 77%
12:00 +13°C° 0.2 mm 6 mps 742 mmHg 74%
13:00 +14°C° 0.2 mm 6 mps 742 mmHg 71%
14:00 +14°C° 0.1 mm 6 mps 742 mmHg 70%
15:00 +15°C° 0.1 mm 5 mps 742 mmHg 69%
16:00 +15°C° 0.1 mm 5 mps 742 mmHg 67%
17:00 +14°C° 0.1 mm 4 mps 742 mmHg 72%
18:00 +13°C° 0.1 mm 4 mps 742 mmHg 77%
19:00 +12°C° 0.1 mm 3 mps 743 mmHg 81%
20:00 +11°C° 0 mm 3 mps 743 mmHg 85%
21:00 +10°C° 0 mm 3 mps 743 mmHg 88%
22:00 +9°C° 0 mm 3 mps 743 mmHg 92%
23:00 +8°C° 0 mm 3 mps 744 mmHg 93%

Day after tomorrow, 19 May, Wednesday

Time Temperature Precipitation Wind Pressure Humidity
00:00 +8°C° 0 mm 3 mps 744 mmHg 94%
01:00 +7°C° 0 mm 4 mps 744 mmHg 95%
02:00 +6°C° 0 mm 4 mps 744 mmHg 95%
03:00 +6°C° 0 mm 4 mps 744 mmHg 95%
04:00 +6°C° 0 mm 4 mps 744 mmHg 95%
05:00 +7°C° 0 mm 4 mps 744 mmHg 90%
06:00 +8°C° 0 mm 5 mps 745 mmHg 86%
07:00 +9°C° 0 mm 5 mps 745 mmHg 81%
08:00 +10°C° 0 mm 5 mps 745 mmHg 77%
09:00 +10°C° 0 mm 5 mps 745 mmHg 74%
10:00 +12°C° 0 mm 5 mps 745 mmHg 70%
11:00 +12°C° 0.2 mm 5 mps 745 mmHg 72%
12:00 +12°C° 0.2 mm 5 mps 745 mmHg 73%
13:00 +12°C° 0.2 mm 5 mps 745 mmHg 75%
14:00 +11°C° 0.3 mm 6 mps 745 mmHg 77%
15:00 +11°C° 0.3 mm 6 mps 745 mmHg 79%
16:00 +11°C° 0.3 mm 6 mps 745 mmHg 81%
17:00 +10°C° 0.1 mm 5 mps 745 mmHg 84%
18:00 +9°C° 0.1 mm 5 mps 746 mmHg 86%
19:00 +9°C° 0.1 mm 5 mps 746 mmHg 89%
20:00 +8°C° 0 mm 4 mps 746 mmHg 89%
21:00 +8°C° 0 mm 4 mps 746 mmHg 90%
22:00 +8°C° 0 mm 4 mps 746 mmHg 90%
23:00 +8°C° 0 mm 4 mps 746 mmHg 90%

20 May, Thursday

Time Temperature Precipitation Wind Pressure Humidity
00:00 +7°C° 0 mm 4 mps 746 mmHg 90%
01:00 +7°C° 0 mm 4 mps 746 mmHg 90%
02:00 +7°C° 0 mm 4 mps 747 mmHg 89%
03:00 +7°C° 0 mm 4 mps 747 mmHg 88%
04:00 +8°C° 0 mm 3 mps 747 mmHg 88%
05:00 +7°C° 0 mm 4 mps 747 mmHg 85%
06:00 +8°C° 0 mm 4 mps 747 mmHg 82%
07:00 +8°C° 0 mm 4 mps 748 mmHg 80%
08:00 +11°C° 0.1 mm 4 mps 748 mmHg 75%
09:00 +12°C° 0.1 mm 5 mps 748 mmHg 71%
10:00 +13°C° 0.1 mm 5 mps 748 mmHg 67%
11:00 +13°C° 0.3 mm 5 mps 748 mmHg 69%
12:00 +13°C° 0.3 mm 5 mps 748 mmHg 70%
13:00 +13°C° 0.3 mm 6 mps 748 mmHg 72%
14:00 +13°C° 0.4 mm 6 mps 748 mmHg 73%
15:00 +13°C° 0.4 mm 6 mps 748 mmHg 74%
16:00 +13°C° 0.4 mm 6 mps 748 mmHg 75%
17:00 +13°C° 0.1 mm 6 mps 748 mmHg 77%
18:00 +12°C° 0.1 mm 5 mps 748 mmHg 78%
19:00 +10°C° 0.1 mm 5 mps 748 mmHg 79%
20:00 +10°C° 0 mm 4 mps 749 mmHg 84%
21:00 +7°C° 0 mm 4 mps 749 mmHg 88%
22:00 +7°C° 0 mm 3 mps 750 mmHg 93%
23:00 +5°C° 0 mm 3 mps 750 mmHg 93%

21 May, Friday

Time Temperature Precipitation Wind Pressure Humidity
00:00 +5°C° 0 mm 3 mps 750 mmHg 93%
01:00 +4°C° 0 mm 3 mps 750 mmHg 93%
02:00 +4°C° 0 mm 3 mps 750 mmHg 94%
03:00 +3°C° 0 mm 3 mps 750 mmHg 94%
04:00 +3°C° 0 mm 3 mps 750 mmHg 95%
05:00 +4°C° 0 mm 3 mps 750 mmHg 90%
06:00 +6°C° 0 mm 4 mps 750 mmHg 86%
07:00 +7°C° 0 mm 4 mps 750 mmHg 82%
08:00 +9°C° 0.1 mm 5 mps 750 mmHg 76%
09:00 +10°C° 0.1 mm 5 mps 750 mmHg 70%
10:00 +12°C° 0.1 mm 5 mps 749 mmHg 64%
11:00 +12°C° 0 mm 4 mps 749 mmHg 64%
12:00 +13°C° 0 mm 4 mps 749 mmHg 65%
13:00 +13°C° 0 mm 3 mps 749 mmHg 65%
14:00 +13°C° 0 mm 3 mps 748 mmHg 63%
15:00 +15°C° 0 mm 2 mps 748 mmHg 61%
16:00 +16°C° 0 mm 2 mps 747 mmHg 59%
17:00 +15°C° 0 mm 2 mps 747 mmHg 65%
18:00 +14°C° 0 mm 2 mps 746 mmHg 70%
19:00 +13°C° 0 mm 2 mps 746 mmHg 76%
20:00 +13°C° 0 mm 2 mps 746 mmHg 77%
21:00 +12°C° 0 mm 2 mps 746 mmHg 79%
22:00 +12°C° 0 mm 2 mps 746 mmHg 80%
23:00 +10°C° 0 mm 2 mps 745 mmHg 79%

22 May, Saturday

Time Temperature Precipitation Wind Pressure Humidity
00:00 +10°C° 0 mm 2 mps 745 mmHg 78%
01:00 +10°C° 0 mm 3 mps 744 mmHg 77%
02:00 +10°C° 0 mm 3 mps 744 mmHg 78%
03:00 +9°C° 0 mm 3 mps 743 mmHg 79%
04:00 +9°C° 0 mm 3 mps 743 mmHg 80%
05:00 +10°C° 0 mm 4 mps 743 mmHg 77%
06:00 +10°C° 0 mm 5 mps 743 mmHg 75%
07:00 +13°C° 0 mm 5 mps 743 mmHg 72%
08:00 +14°C° 0 mm 5 mps 743 mmHg 69%
09:00 +15°C° 0 mm 5 mps 743 mmHg 65%
10:00 +16°C° 0 mm 5 mps 743 mmHg 62%
11:00 +17°C° 0 mm 6 mps 743 mmHg 63%
12:00 +17°C° 0 mm 6 mps 743 mmHg 64%
13:00 +17°C° 0 mm 6 mps 744 mmHg 65%
14:00 +16°C° 0.5 mm 6 mps 744 mmHg 72%
15:00 +14°C° 0.5 mm 5 mps 744 mmHg 79%
16:00 +13°C° 0.5 mm 5 mps 744 mmHg 86%
17:00 +12°C° 0.1 mm 4 mps 744 mmHg 87%
18:00 +12°C° 0.1 mm 3 mps 744 mmHg 87%
19:00 +12°C° 0.1 mm 2 mps 744 mmHg 88%
20:00 +12°C° 0 mm 2 mps 744 mmHg 88%
21:00 +10°C° 0 mm 2 mps 744 mmHg 88%
22:00 +10°C° 0 mm 2 mps 744 mmHg 88%
23:00 +10°C° 0 mm 2 mps 744 mmHg 87%
Show more